Volver al catálogo

STARLINK-37129

ActivoComunicacionesVLEO
NORAD 68274·PAYLOAD·🇺🇸 United States

Lanzado Mar 19, 2026 desde Vandenberg Space Force Base

Loading…

Próximos Pases (próximas 24 horas)

TLE

ActualizadoSource: CelesTrak SupGP

Época: Sep 15, 2026, 03:06 UTC

1 68274C 26055N   26258.12965278  .00007168  00000+0  21181-3 0  2583
2 68274  53.1575 155.1183 0001155  75.5819 316.0875 15.34380069    16

Sigue STARLINK-37129 en tiempo real con AllMySat

Download on the App Store